User: anonymous   Login
Location: Caltech
(34.1382°N, 118.1253°W)
Time: 19:57:09
(UTC-08:00)
Language:

Courier 1B - Orbit

View from above orbital plane
View from above orbital plane
View from above satellite
View from above satellite

Ground track
Ground track

The orbit data is extracted from the following two-line orbital elements,

1    58U 60013A   18021.63728047 +.00000081 +00000-0 -32805-5 0  9995
2    58 028.3261 227.9883 0164940 001.7455 358.3643 13.46311848820238
Epoch (UTC): 21 January 2018 15:17:41
Eccentricity: 0.0164940
inclination: 28.3261°
perigee height: 963 km
apogee height: 1209 km
right ascension of ascending node: 227.9883°
argument of perigee: 1.7455°
revolutions per day: 13.46311848
mean anomaly at epoch: 358.3643°
orbit number at epoch: 82023

The dashed part of the orbit path shows where the satellite is in the earth's shadow,  

DLR